Weather in Zaozerny

Russia / Kemerovo Oblast     55°53′26″N   84°43′14″E
temp.,
°C
wind,
m/s
gust,
m/s
humid.,
%
clouds,
%
prec.,
mm/h
press.,
hPa
HPBL,
m
13 may, thu
thu1301:00+12nnw11455 0.0 101410
04:00+10sse115185 0.0 101310
07:00+12nw115358 0.0 101345
10:00+17w1139100 0.0 1013455
13:00+20sw352993 0.0 10113135
16:00+21wsw452467 0.0 10113051
19:00+20nw3533100 0.0 1011799
22:00+14n51059100 0.0 1013628
14 may, fri
fri1401:00+11nnw367083 0.0 1014197
04:00+9nw497935 0.0 1015245
07:00+8nnw510708 0.0 1017492
10:00+10nnw686397 0.0 10181226
13:00+13nnw683186 0.0 10191584
16:00+14nw682599 0.0 10201768
19:00+14nw572994 0.0 10211586
22:00+10wnw2337100 0.0 102243
15 may, sat
sat1501:00+9s4662100 0.5 1022194
04:00+10sw5134376 0.0 1020388
07:00+11sw71542100 0.0 1019464
10:00+15wsw7124885 0.2 1018800
13:00+17wsw71149100 0.2 1018765
16:00+23wsw61040100 0.0 10151958
19:00+22wsw7114690 0.0 10141252
22:00+18wsw5125921 0.6 1014317
16 may, sun
sun1601:00+14ssw4792100 3.8 1014167
04:00+13wsw349387 0.0 101361
07:00+14nw2290100 0.0 1013112
10:00+15ne1286100 0.3 1014304
13:00+18n227387 1.0 1014823
16:00+15nne658197 1.4 1015604
19:00+15nne357773 1.4 1016666
22:00+13ne2484100 0.1 1017137
17 may, mon
mon1701:00+12nne118216 0.1 101613
04:00+9w118891 0.0 101610
07:00+12sw3784100 0.0 1015228
10:00+18wsw6957100 0.0 1014772
13:00+24wsw9124498 0.1 10111544
16:00+28wnw8133037 0.0 10083371
19:00+27wnw611359 0.0 1008808
22:00+19wsw4951100 0.1 1007147